Regional Weather Roundup
Issued by NWS Spokane, WA

Home | Current Version | Previous Version | Text Only | Print | Product List | Glossary On
Versions: 1 2 3 4 5 6 7 8 9 10 11 12 13 14 15 16 17 18 19 20 21 22 23 24 25 26 27 28 29 30 31 32 33 34 35 36 37 38 39 40 41 42 43 44 45 46 47 48 49 50
099
NZUS01 KOTX 211825
RWROTX

Eastern Washington/Northern Idaho Roundup
National Weather Service, Spokane WA
1000 AM PST SAT JAN 21 2017

Note: "fair" indicated few or no clouds below 12,000 feet with no
significant weather and/or obstructions to visibility.

...Northeast Washington and Northern Idaho Panhandle...

CITY           SKY/WX    TMP DP  RH WIND       PRES   REMARKS
Spokane Intl   PTSUNNY   36  30  79 E5        29.44R
Spokane Downto CLOUDY    37  32  82 SE5       29.46R
Coeur d Alene  CLOUDY    34  32  93 N9        29.47R WCI  26
Deer Park      CLOUDY    34  31  88 NE10      29.46R WCI  26
Sandpoint        N/A     34  32  93 NE5       29.49R WCI  30
Bonners Ferry  FAIR      32  28  86 CALM      29.49R

...Southeast Washington and southern Idaho Panhandle...

CITY           SKY/WX    TMP DP  RH WIND       PRES   REMARKS
Walla Walla    MOSUNNY   39  32  76 CALM      29.44R
Pullman/Moscow CLOUDY    36  29  75 E9        29.45R
Lewiston       CLOUDY    39  30  70 S5        29.47R
Lowell           N/A     34  31  88 NW3       29.53R
Grangeville    CLOUDY    34  30  86 NW3       29.44R

...Columbia Basin...

CITY           SKY/WX    TMP DP  RH WIND       PRES   REMARKS
Ephrata        CLOUDY    34  29  82 NE3       29.44R
Moses Lake     CLOUDY    34  32  92 CALM      29.45R
Pasco          SUNNY     29  27  92 CALM      29.49R FOG
Richland       CLEAR     35  32  87 CALM      29.49R FOG
Hermiston      SUNNY     32  32 100 CALM      29.47R FOG
Pendleton      MOSUNNY   33  32  96 SE3       29.43R FOG

...East Slopes Cascades...

CITY           SKY/WX    TMP DP  RH WIND       PRES   REMARKS
The Dalles     PTSUNNY   33  32  96 CALM      29.47R FOG
Yakima         CLOUDY    37  35  92 CALM      29.45R FOG
Ellensburg     LGT RAIN  37  33  85 NE3       29.42R
Stampede Pass  FOG       32  30  92 VRB5      29.34R VSB 3/4 WCI  27
Wenatchee      FOG       34  34 100 CALM      29.45R VSB 1
Omak           LGT RAIN  35  31  85 N8        29.46R WCI  29
Sunnyside      PTCLDY    30  29  96 CALM      29.47R FOG

...Southern British Columbia...

CITY           SKY/WX    TMP DP  RH WIND       PRES   REMARKS
Penticton      LGT RAIN  36  34  93 N7        29.46R
Castlegar      FLURRIES  34  32  93 N7        29.50R WCI  28
Cranbrook      PTSUNNY   21  18  86 N2        29.50R
Osoyoos          N/A     36  34  93 S1          N/A
Creston          N/A     36  28  75 NW1         N/A

...Western Montana...

CITY           SKY/WX    TMP DP  RH WIND       PRES   REMARKS
Kalispell      MOCLDY    20  17  88 SW5       29.47R WCI  13
Missoula       CLOUDY    22  21  96 CALM      29.51R

...Neighboring Cities...

CITY           SKY/WX    TMP DP  RH WIND       PRES   REMARKS
Seattle        LGT RAIN  44  36  73 S7        29.37R
Portland       PTSUNNY   40  36  86 E13       29.38R
Boise          LGT SNOW  33  32  96 E3        29.56R VSB 3/4
Great Falls    CLOUDY    26  20  77 SW6       29.42R WCI  19
Calgary        MOSUNNY   23  14  68 CALM      29.46R



USA.gov is the U.S. government's official web portal to all federal, state and local government web resources and services.